Regional Weather Roundup
Issued by NWS Cleveland, OH

Home | Current Version | Previous Version | Text Only | Print | Product List | Glossary Off
Versions: 1 2 3 4 5 6 7 8 9 10 11 12 13 14 15 16 17 18 19 20 21 22 23 24 25 26 27 28 29 30 31 32 33 34 35 36 37 38 39 40 41 42 43 44 45 46 47 48 49 50

000
ASUS41 KCLE 240010
RWRCLE
OHIO REGIONAL WEATHER ROUNDUP
NATIONAL WEATHER SERVICE WILMINGTON, OH
800 PM EDT SAT MAY 23 2015

NOTE: "FAIR" INDICATES FEW OR NO CLOUDS BELOW 12,000 FEET WITH NO
SIGNIFICANT WEATHER AND/OR OBSTRUCTIONS TO VISIBILITY.

OHZ001>008-015>018-024>027-034-035-043-044-240100-
   NORTHWEST OHIO

CITY           SKY/WX    TMP DP  RH WIND       PRES   REMARKS
DEFIANCE       PTCLDY    75  45  34 S3        30.25F
FINDLAY        CLEAR     75  42  30 SW6       30.25F
TOLEDO EXPRESS CLEAR     76  39  26 CALM      30.25F
TOLEDO EXEC    CLEAR     70  41  34 E10       30.27F
LIMA           PTCLDY    75  46  35 SE5       30.26F
$$

OHZ009>014-019>023-028>033-038-089-240100-
   NORTHEAST OHIO

CITY           SKY/WX    TMP DP  RH WIND       PRES   REMARKS
CLE-HOPKINS    PTCLDY    68  36  30 E6        30.31F
CLE-LAKEFRONT  PTCLDY    64  44  48 NE8       30.29F
CUY CO. ARPT   PTCLDY    68  39  34 E7        30.31F
LORAIN-ELYRIA  CLEAR     71  37  28 E6        30.30F
ASHTABULA      CLEAR     65  35  33 CALM      30.33F
AKRON-CANTON   PTCLDY    69  37  30 SW8       30.32F
WOOSTER        CLEAR     71  37  28 S7        30.32S
MANSFIELD      CLEAR     71  42  35 SE6       30.30F
YOUNGSTOWN     PTCLDY    67  37  33 SW3       30.33S
$$

OHZ042-051>053-060>062-070>072-077>081-240100-
  SOUTHWEST OHIO

CITY           SKY/WX    TMP DP  RH WIND       PRES   REMARKS
CINC-COVINGTON PTCLDY    73  49  42 SE9       30.27F
CINC-LUNKEN    CLEAR     74  46  36 SE6       30.27F
HAMILTON       CLEAR     77  45  32 S3        30.27F
DAYTON         PTCLDY    75  44  33 S5        30.28F
WRIGHT-PAT AFB CLEAR     75  43  30 SE8       30.27F
DAYTON GENERAL CLEAR     73  44  35 SE7       30.27F
WILMINGTON     PTCLDY    74  38  27 S6        30.28F
$$

OHZ036-037-039>041-045>050-054>059-063>069-073>076-082>088-240100-
  CENTRAL AND SOUTHEAST OHIO

CITY           SKY/WX    TMP DP  RH WIND       PRES   REMARKS
COLUMBUS       PTCLDY    74  40  29 SE8       30.29F
OSU AIRPORT    PTCLDY    74  43  32 SW6       30.29F
BOLTON FIELD   NOT AVBL
RICKENBACK AFB PTCLDY    73  43  33 E6        30.29S
NEWARK         CLEAR     74  41  30 SE5       30.31S
MARION         CLEAR     73  42  32 SW3       30.29F
LANCASTER      CLEAR     71  46  40 E6        30.31F
ZANESVILLE     CLEAR     74  33  22 CALM      30.32F
NEW PHILLY     CLEAR     73  44  35 CALM      30.33S
$$



USA.gov is the U.S. government's official web portal to all federal, state and local government web resources and services.